Location: Tel Aviv
(32.0670°N, 34.7670°E)
Time: 15:38:26
(UTC+03:00)

UNISAT 6 - Visible Passes

Search period start: 17 September 2024 00:00
Search period end: 27 September 2024 00:00
Orbit: 589 x 661 km, 97.7° (Epoch: 16 September)

Date Brightness Start Highest point End Pass type
(mag) Time Alt. Az. Time Alt. Az. Time Alt. Az.
17 Sep ? 04:36:53 78° NNW 04:36:53 78° NNW 04:40:51 10° NNW visible
18 Sep ? 03:19:01 10° ENE 03:19:51 11° ENE 03:20:46 10° NE visible
18 Sep ? 04:56:18 43° WNW 04:56:18 43° WNW 04:59:40 10° NNW visible
19 Sep ? 03:38:24 18° ENE 03:38:35 18° ENE 03:41:26 10° NNE visible
19 Sep ? 05:15:42 24° WNW 05:15:42 24° WNW 05:18:11 10° NW visible
20 Sep ? 03:57:47 29° ENE 03:57:47 29° ENE 04:01:02 10° NNE visible
20 Sep ? 05:35:04 14° WNW 05:35:04 14° WNW 05:36:15 10° NW visible
21 Sep ? 04:17:10 41° NNE 04:17:10 41° NNE 04:20:16 10° N visible
22 Sep ? 04:36:31 39° NNW 04:36:31 39° NNW 04:39:15 10° NNW visible
23 Sep ? 03:18:35 10° ENE 03:18:35 10° ENE 03:18:55 10° NE visible
23 Sep ? 04:55:52 27° NW 04:55:52 27° NW 04:58:01 10° NNW visible
24 Sep ? 03:37:55 16° NE 03:37:55 16° NE 03:39:39 10° NNE visible
24 Sep ? 05:15:13 17° NW 05:15:13 17° NW 05:16:29 10° NW visible
25 Sep ? 03:57:15 21° NNE 03:57:15 21° NNE 03:59:12 10° NNE visible
25 Sep ? 05:34:32 10° NW 05:34:32 10° NW 05:34:32 10° NW visible
26 Sep ? 04:16:33 24° N 04:16:33 24° N 04:18:22 10° N visible
